Station DISW3 - Devils Island, WI Image indicating link to RSS feed of recent meteorological observations for station DISW3


Conditions at DISW3 as of
(2:00 pm CDT)
1900 GMT on 04/16/2024:
     

Click on the graph icon in the table below to see a time series plot of the last five days of that observation.

5-day plot - Wind Direction Wind Direction (WDIR): NE ( 50 deg true )
5-day plot - Wind Speed Wind Speed (WSPD): 31 kts
5-day plot - Wind Gust Wind Gust (GST): 32 kts
5-day plot - Atmospheric Pressure Atmospheric Pressure (PRES):30.01 in
5-day plot - Pressure Tendency Pressure Tendency (PTDY):-0.09 in ( Falling )
5-day plot - Air Temperature Air Temperature (ATMP): 39.9 °F
5-day plot - Dew Point Dew Point (DEWP): 32.9 °F
5-day plot - Wind Chill Wind Chill (CHILL): 27.5 °F
5-day plot - Wind Speed at 10 Meters Wind Speed at 10 meters (WSPD10M): 27 kts
5-day plot - Wind Speed at 20 Meters Wind Speed at 20 meters (WSPD20M): 29 kts
5-day plot -  Wind Speed, Wind Gust and Atmospheric Pressure Combined plot of Wind Speed, Gust, and Air Pressure
Continuous Winds
TIME
(CDT)
5-day plot - Wind Direction WDIR 5-day plot - Wind Speed WSPD
2:00 pmNE ( 54 deg ) 30 kts
1:50 pmNE ( 54 deg ) 30 kts
1:40 pmNE ( 55 deg ) 28 kts
1:30 pmNE ( 53 deg ) 28 kts
1:20 pmNE ( 54 deg ) 27 kts
1:10 pmNE ( 54 deg ) 27 kts
 
Peak gust during the measurement hour
TIME
(CDT)
5-day plot - Gust Direction GDR 5-day plot - Gust Speed GST
1:43 pmENE ( 60 deg ) 34 kts
Previous observations
TIME
(CDT)
5-day plot - Wind Direction
WDIR
 
5-day plot - Wind Speed
WSPD
kts
5-day plot - Wind Gust
GST
kts
5-day plot - Wave Height
WVHT
ft
5-day plot - Dominant Wave Period
DPD
sec
5-day plot - Average Wave Period
APD
sec
5-day plot - Mean Wave Direction
MWD
 
5-day plot - Atmospheric Pressure
PRES
in
5-day plot - Pressure Tendency
PTDY
in
5-day plot - Air Temperature
ATMP
°F
5-day plot - Water Temperature
WTMP
°F
5-day plot - Dew Point
DEWP
°F
5-day plot - Salinity
SAL
psu
5-day plot - Visibility
VIS
nmi
5-day plot - Tide (above MLLW)
TIDE
ft
2024-04-16 01:00 pmENE 26 29----30.05-0.08 39.7- 33.4---
2024-04-16 12:00 pmENE 21 24----30.09-0.05 39.9- 34.0---
2024-04-16 11:00 amENE 24 26----30.09-0.06 39.4- 34.7---
2024-04-16 10:00 amENE 18 20----30.13-0.01 39.6- 34.7---
2024-04-16 09:00 am E 18 19----30.14+0.01 40.6- 33.8---
2024-04-16 08:00 am E 16 17----30.15+0.04 40.3- 34.3---
2024-04-16 07:00 am E 18 19----30.15+0.04 40.1- 34.0---
2024-04-16 06:00 amENE 17 18----30.13+0.04 39.7- 34.7---
2024-04-16 05:00 am E 12 13----30.11-0.01 40.1- 34.5---
2024-04-16 04:00 am E 12 12----30.11-0.03 39.6- 35.1---
2024-04-16 03:00 am E 18 20----30.10-0.03 40.1- 34.3---
2024-04-16 02:00 am E 12 13----30.13+0.00 40.3- 34.3---
2024-04-16 01:00 am E 7 8----30.14+0.04 39.0- 35.6---
2024-04-16 12:00 am E 5 6----30.13+0.03 39.4- 34.7---
2024-04-15 11:00 pm NE 8 9----30.12+0.02 40.1- 34.0---
2024-04-15 10:00 pm E 5 5----30.10+0.01 46.4- 25.5---
2024-04-15 09:00 pmSSE 7 9----30.10+0.00 49.6- 23.5---
2024-04-15 08:00 pmSSE 8 11----30.10+0.00 50.0- 20.7---
2024-04-15 07:00 pmSSE 7 11----30.09+0.00 51.3- 23.4---
2024-04-15 06:00 pm S 10 13----30.09+0.00 53.2- 25.7---
2024-04-15 05:00 pm SE 9 11----30.09-0.01 54.5- 26.2---
2024-04-15 04:00 pmESE 6 7----30.09+0.00 53.1- 24.4---
2024-04-15 03:00 pmESE 5 6----30.10+0.00 51.8- 25.0---